,,Stat6,,Stat2,,Stat8,,Stat9,,Stat10,,Wind1,,Wind1,
time,status,PA1M_AVG,status,PR1M_SUM,status,RH1M_AVG,status,SR1M_AVG,status,TA1M_AVG,status,W1dAve1m,status,W1sAve1m,
2008-06-09, 00:00:00,VALID,916.111,VALID,0,VALID,99.2347,VALID,0,VALID,18.7159,VALID,144,VALID,0.0193359,
2008-06-09, 00:01:00,VALID,916.121,VALID,0,VALID,99.7383,VALID,0.0169808,VALID,18.6408,VALID,154,VALID,0.941592,
2008-06-09, 00:02:00,VALID,916.132,VALID,0,VALID,100,VALID,0,VALID,18.5834,VALID,143,VALID,0,
2008-06-09, 00:03:00,VALID,916.142,VALID,0,VALID,100,VALID,0.0339617,VALID,18.5206,VALID,139,VALID,0.0909598,
2008-06-09, 00:04:00,VALID,916.141,VALID,0,VALID,100,VALID,0.101885,VALID,18.4624,VALID,145,VALID,0.144077,
2008-06-09, 00:05:00,VALID,916.146,VALID,0,VALID,100,VALID,0.0679233,VALID,18.4242,VALID,141,VALID,0.958576,
2008-06-09, 00:06:00,VALID,916.127,VALID,0,VALID,100,VALID,0.0509425,VALID,18.3874,VALID,135,VALID,1.03887,
2008-06-09, 00:07:00,VALID,916.118,VALID,0,VALID,100,VALID,0.0679233,VALID,18.3783,VALID,126,VALID,0.014881,
2008-06-09, 00:08:00,VALID,916.104,VALID,0,VALID,100,VALID,0,VALID,18.3626,VALID,122,VALID,0,
2008-06-09, 00:09:00,VALID,916.115,VALID,0,VALID,100,VALID,-0.0509425,VALID,18.38,VALID,130,VALID,0.000571646,
2008-06-09, 00:10:00,VALID,916.12,VALID,0,VALID,100,VALID,-0.0509425,VALID,18.3929,VALID,127,VALID,0.000952744,
2008-06-09, 00:11:00,VALID,916.14,VALID,0,VALID,100,VALID,-0.0169808,VALID,18.3962,VALID,133,VALID,0.000726744,
2008-06-09, 00:12:00,VALID,916.143,VALID,0,VALID,100,VALID,-0.0849042,VALID,18.4059,VALID,132,VALID,0.0957961,
2008-06-09, 00:13:00,VALID,916.156,VALID,0,VALID,100,VALID,-0.0339617,VALID,18.4316,VALID,129,VALID,0.0299479,
2008-06-09, 00:14:00,VALID,916.15,VALID,0,VALID,100,VALID,-0.0509425,VALID,18.4374,VALID,128,VALID,0.53032,
2008-06-09, 00:15:00,VALID,916.149,VALID,0,VALID,100,VALID,-0.0509425,VALID,18.4506,VALID,134,VALID,1.13105,
2008-06-09, 00:16:00,VALID,916.153,VALID,0,VALID,100,VALID,-0.0339617,VALID,18.499,VALID,138,VALID,1.39662,
2008-06-09, 00:17:00,VALID,916.149,VALID,0,VALID,100,VALID,-0.0339617,VALID,18.5382,VALID,134,VALID,1.13223,
2008-06-09, 00:18:00,VALID,916.153,VALID,0,VALID,100,VALID,-0.0679233,VALID,18.5641,VALID,134,VALID,1.11076,
2008-06-09, 00:19:00,VALID,916.157,VALID,0,VALID,100,VALID,-0.0169808,VALID,18.5704,VALID,141,VALID,0.966025,
2008-06-09, 00:20:00,VALID,916.161,VALID,0,VALID,100,VALID,-0.0509425,VALID,18.5739,VALID,136,VALID,1.08079,
2008-06-09, 00:21:00,VALID,916.166,VALID,0,VALID,100,VALID,-0.0169808,VALID,18.5542,VALID,137,VALID,0.939258,
2008-06-09, 00:22:00,VALID,916.173,VALID,0,VALID,100,VALID,-0.0169808,VALID,18.5449,VALID,144,VALID,0.243641,
2008-06-09, 00:23:00,VALID,916.167,VALID,0,VALID,100,VALID,-0.0339617,VALID,18.5187,VALID,147,VALID,0,
2008-06-09, 00:24:00,VALID,916.16,VALID,0,VALID,100,VALID,-0.0339617,VALID,18.5055,VALID,148,VALID,0,
2008-06-09, 00:25:00,VALID,916.151,VALID,0,VALID,100,VALID,-0.0509425,VALID,18.4763,VALID,142,VALID,0,
2008-06-09, 00:26:00,VALID,916.131,VALID,0,VALID,100,VALID,-0.0339617,VALID,18.4409,VALID,139,VALID,0,
2008-06-09, 00:27:00,VALID,916.144,VALID,0,VALID,100,VALID,-0.0339617,VALID,18.4057,VALID,142,VALID,0,
2008-06-09, 00:28:00,VALID,916.131,VALID,0,VALID,100,VALID,-0.0169808,VALID,18.3862,VALID,141,VALID,0,
2008-06-09, 00:29:00,VALID,916.123,VALID,0,VALID,100,VALID,-0.0849042,VALID,18.3725,VALID,141,VALID,0.162574,
2008-06-09, 00:30:00,VALID,916.114,VALID,0,VALID,100,VALID,-0.0509425,VALID,18.3825,VALID,139,VALID,0.794876,
2008-06-09, 00:31:00,VALID,916.104,VALID,0,VALID,100,VALID,-0.0169808,VALID,18.3793,VALID,135,VALID,0.279297,
2008-06-09, 00:32:00,VALID,916.094,VALID,0,VALID,100,VALID,-0.0509425,VALID,18.3401,VALID,133,VALID,0,
2008-06-09, 00:33:00,VALID,916.089,VALID,0,VALID,100,VALID,-0.0339617,VALID,18.3241,VALID,132,VALID,0,
2008-06-09, 00:34:00,VALID,916.079,VALID,0,VALID,100,VALID,-0.0679233,VALID,18.3239,VALID,143,VALID,0,
2008-06-09, 00:35:00,VALID,916.08,VALID,0,VALID,100,VALID,-0.0169808,VALID,18.3531,VALID,132,VALID,0,
2008-06-09, 00:36:00,VALID,916.081,VALID,0,VALID,100,VALID,-0.0509425,VALID,18.3862,VALID,141,VALID,0.0703125,
2008-06-09, 00:37:00,VALID,916.07,VALID,0,VALID,100,VALID,-0.0509425,VALID,18.3985,VALID,148,VALID,0,
2008-06-09, 00:38:00,VALID,916.094,VALID,0,VALID,100,VALID,-0.0339617,VALID,18.4344,VALID,146,VALID,0,
2008-06-09, 00:39:00,VALID,916.094,VALID,0,VALID,100,VALID,-0.0679233,VALID,18.4601,VALID,141,VALID,0.354883,
2008-06-09, 00:40:00,VALID,916.1,VALID,0,VALID,100,VALID,-0.0509425,VALID,18.483,VALID,140,VALID,0,
2008-06-09, 00:41:00,VALID,916.087,VALID,0,VALID,100,VALID,-0.0339617,VALID,18.4863,VALID,138,VALID,0,
2008-06-09, 00:42:00,VALID,916.088,VALID,0,VALID,100,VALID,-0.0509425,VALID,18.5122,VALID,136,VALID,0,
2008-06-09, 00:43:00,VALID,916.099,VALID,0,VALID,100,VALID,-0.0509425,VALID,18.5544,VALID,134,VALID,0,
2008-06-09, 00:44:00,VALID,916.092,VALID,0,VALID,99.9964,VALID,-0.0339617,VALID,18.5704,VALID,139,VALID,0,
2008-06-09, 00:45:00,VALID,916.098,VALID,0,VALID,99.9112,VALID,-0.0679233,VALID,18.5871,VALID,140,VALID,0,
2008-06-09, 00:46:00,VALID,916.095,VALID,0,VALID,99.8744,VALID,-0.0339617,VALID,18.6063,VALID,140,VALID,0.429142,
2008-06-09, 00:47:00,VALID,916.082,VALID,0,VALID,99.6111,VALID,-0.0679233,VALID,18.642,VALID,138,VALID,0.886446,
2008-06-09, 00:48:00,VALID,916.069,VALID,0,VALID,99.3072,VALID,-0.0849042,VALID,18.661,VALID,135,VALID,0.222565,
2008-06-09, 00:49:00,VALID,916.074,VALID,0,VALID,99.1788,VALID,-0.0339617,VALID,18.6742,VALID,141,VALID,0,
2008-06-09, 00:50:00,VALID,916.056,VALID,0,VALID,99.1686,VALID,-0.0679233,VALID,18.6909,VALID,149,VALID,0,
2008-06-09, 00:51:00,VALID,916.041,VALID,0,VALID,99.072,VALID,-0.0849042,VALID,18.7066,VALID,147,VALID,0,
2008-06-09, 00:52:00,VALID,916.023,VALID,0,VALID,98.9893,VALID,-0.0679233,VALID,18.7166,VALID,139,VALID,0,
2008-06-09, 00:53:00,VALID,916.008,VALID,0,VALID,98.7935,VALID,-0.0339617,VALID,18.7034,VALID,133,VALID,0,
2008-06-09, 00:54:00,VALID,916.187,VALID,0,VALID,98.7325,VALID,-0.0339617,VALID,18.6677,VALID,137,VALID,0,
2008-06-09, 00:55:00,VALID,915.985,VALID,0,VALID,98.88,VALID,-0.0169808,VALID,18.6417,VALID,125,VALID,0,
2008-06-09, 00:56:00,VALID,915.978,VALID,0,VALID,99.0822,VALID,-0.0339617,VALID,18.642,VALID,131,VALID,0,
2008-06-09, 00:57:00,VALID,915.981,VALID,0,VALID,99.0135,VALID,-0.0339617,VALID,18.6063,VALID,135,VALID,0,
2008-06-09, 00:58:00,VALID,915.963,VALID,0,VALID,99.0694,VALID,-0.0339617,VALID,18.5704,VALID,136,VALID,0,
2008-06-09, 00:59:00,VALID,915.96,VALID,0,VALID,99.2398,VALID,-0.0339617,VALID,18.5377,VALID,143,VALID,0.169588,
2008-06-09, 01:00:00,VALID,915.95,VALID,0,VALID,99.3377,VALID,-0.0169808,VALID,18.5252,VALID,152,VALID,0.22061,
2008-06-09, 01:01:00,VALID,915.953,VALID,0,VALID,99.4675,VALID,0,VALID,18.5118,VALID,138,VALID,0.0289634,
2008-06-09, 01:02:00,VALID,915.944,VALID,0,VALID,99.3835,VALID,-0.0339617,VALID,18.499,VALID,138,VALID,0,
2008-06-09, 01:03:00,VALID,915.93,VALID,0,VALID,99.1813,VALID,-0.0339617,VALID,18.4504,VALID,138,VALID,0,
2008-06-09, 01:04:00,VALID,915.914,VALID,0,VALID,99.1953,VALID,-0.0679233,VALID,18.4149,VALID,138,VALID,0,
2008-06-09, 01:05:00,VALID,915.885,VALID,0,VALID,99.2093,VALID,-0.101885,VALID,18.3892,VALID,138,VALID,0,
2008-06-09, 01:06:00,VALID,915.872,VALID,0,VALID,99.2437,VALID,-0.101885,VALID,18.3505,VALID,138,VALID,0,
2008-06-09, 01:07:00,VALID,915.871,VALID,0,VALID,99.4179,VALID,-0.0509425,VALID,18.3339,VALID,138,VALID,0,
2008-06-09, 01:08:00,VALID,915.88,VALID,0,VALID,99.5527,VALID,-0.0849042,VALID,18.3077,VALID,138,VALID,0,
2008-06-09, 01:09:00,VALID,915.884,VALID,0,VALID,99.573,VALID,-0.0849042,VALID,18.2952,VALID,138,VALID,0,
2008-06-09, 01:10:00,VALID,915.893,VALID,0,VALID,99.6111,VALID,-0.0509425,VALID,18.256,VALID,138,VALID,0,
2008-06-09, 01:11:00,VALID,915.89,VALID,0,VALID,99.7091,VALID,-0.0509425,VALID,18.2363,VALID,138,VALID,0,
2008-06-09, 01:12:00,VALID,915.88,VALID,0,VALID,99.6264,VALID,-0.0169808,VALID,18.2111,VALID,138,VALID,0,
2008-06-09, 01:13:00,VALID,915.856,VALID,0,VALID,99.2602,VALID,-0.0169808,VALID,18.1034,VALID,138,VALID,0,
2008-06-09, 01:14:00,VALID,915.85,VALID,0,VALID,99.0529,VALID,-0.0339617,VALID,17.9544,VALID,130,VALID,0,
2008-06-09, 01:15:00,VALID,915.842,VALID,0,VALID,99.4471,VALID,-0.0679233,VALID,17.8606,VALID,109,VALID,0,
2008-06-09, 01:16:00,VALID,915.835,VALID,0,VALID,99.8934,VALID,-0.0339617,VALID,17.818,VALID,109,VALID,0,
2008-06-09, 01:17:00,VALID,915.82,VALID,0,VALID,99.9977,VALID,-0.0679233,VALID,17.7661,VALID,109,VALID,0,
2008-06-09, 01:18:00,VALID,915.814,VALID,0,VALID,100,VALID,-0.0339617,VALID,17.7923,VALID,109,VALID,0,
2008-06-09, 01:19:00,VALID,915.805,VALID,0,VALID,100,VALID,0,VALID,17.8506,VALID,109,VALID,0,
2008-06-09, 01:20:00,VALID,915.805,VALID,0,VALID,100,VALID,-0.0339617,VALID,17.896,VALID,110,VALID,0,
2008-06-09, 01:21:00,VALID,915.802,VALID,0,VALID,100,VALID,0,VALID,17.9252,VALID,116,VALID,0,
2008-06-09, 01:22:00,VALID,915.821,VALID,0,VALID,100,VALID,-0.0339617,VALID,17.9313,VALID,115,VALID,0,
2008-06-09, 01:23:00,VALID,915.804,VALID,0,VALID,100,VALID,-0.0509425,VALID,17.9639,VALID,111,VALID,0,
2008-06-09, 01:24:00,VALID,915.805,VALID,0,VALID,100,VALID,-0.0339617,VALID,17.9574,VALID,110,VALID,0,
2008-06-09, 01:25:00,VALID,915.802,VALID,0,VALID,100,VALID,-0.0339617,VALID,17.9479,VALID,111,VALID,0,
2008-06-09, 01:26:00,VALID,915.779,VALID,0,VALID,100,VALID,-0.0509425,VALID,17.9414,VALID,122,VALID,0,
2008-06-09, 01:27:00,VALID,915.764,VALID,0,VALID,100,VALID,-0.0849042,VALID,17.9574,VALID,128,VALID,0,
2008-06-09, 01:28:00,VALID,915.767,VALID,0,VALID,100,VALID,-0.0169808,VALID,17.9607,VALID,127,VALID,0.67569,
2008-06-09, 01:29:00,VALID,915.765,VALID,0,VALID,100,VALID,-0.0169808,VALID,17.9734,VALID,127,VALID,0.891555,
2008-06-09, 01:30:00,VALID,915.76,VALID,0,VALID,100,VALID,-0.0169808,VALID,17.9834,VALID,127,VALID,0.87872,
2008-06-09, 01:31:00,VALID,915.768,VALID,0,VALID,100,VALID,-0.0339617,VALID,17.9862,VALID,125,VALID,1.02649,
2008-06-09, 01:32:00,VALID,915.753,VALID,0,VALID,100,VALID,0,VALID,18.0126,VALID,127,VALID,0.947129,
2008-06-09, 01:33:00,VALID,915.732,VALID,0,VALID,100,VALID,-0.0339617,VALID,18.0061,VALID,130,VALID,1.01684,
2008-06-09, 01:34:00,VALID,915.72,VALID,0,VALID,100,VALID,-0.0679233,VALID,18.0258,VALID,130,VALID,1.05153,
2008-06-09, 01:35:00,VALID,915.698,VALID,0,VALID,100,VALID,-0.0339617,VALID,18.0288,VALID,132,VALID,0.926042,
2008-06-09, 01:36:00,VALID,915.684,VALID,0,VALID,100,VALID,-0.0849042,VALID,18.0255,VALID,127,VALID,1.01544,
2008-06-09, 01:37:00,VALID,915.667,VALID,0,VALID,100,VALID,-0.0679233,VALID,18.0482,VALID,135,VALID,1.03161,
2008-06-09, 01:38:00,VALID,915.669,VALID,0,VALID,100,VALID,-0.0169808,VALID,18.0679,VALID,131,VALID,1.05504,
2008-06-09, 01:39:00,VALID,915.672,VALID,0,VALID,100,VALID,-0.0339617,VALID,18.0774,VALID,128,VALID,1.05678,
2008-06-09, 01:40:00,VALID,915.66,VALID,0,VALID,100,VALID,-0.0169808,VALID,18.0941,VALID,131,VALID,1.10603,
2008-06-09, 01:41:00,VALID,915.658,VALID,0,VALID,100,VALID,-0.0339617,VALID,18.1001,VALID,124,VALID,0.945884,
2008-06-09, 01:42:00,VALID,915.624,VALID,0,VALID,100,VALID,-0.0509425,VALID,18.1133,VALID,126,VALID,1.05915,
2008-06-09, 01:43:00,VALID,915.605,VALID,0,VALID,100,VALID,-0.0509425,VALID,18.1365,VALID,131,VALID,1.00967,
2008-06-09, 01:44:00,VALID,915.594,VALID,0,VALID,100,VALID,-0.0509425,VALID,18.1455,VALID,124,VALID,0.886541,
2008-06-09, 01:45:00,VALID,915.593,VALID,0,VALID,100,VALID,-0.0679233,VALID,18.1455,VALID,123,VALID,0.854048,
2008-06-09, 01:46:00,VALID,915.586,VALID,0,VALID,100,VALID,-0.0339617,VALID,18.1587,VALID,128,VALID,0.907617,
2008-06-09, 01:47:00,VALID,915.585,VALID,0,VALID,100,VALID,-0.0339617,VALID,18.1622,VALID,133,VALID,1.04074,
2008-06-09, 01:48:00,VALID,915.568,VALID,0,VALID,100,VALID,-0.0509425,VALID,18.1622,VALID,130,VALID,0.887957,
2008-06-09, 01:49:00,VALID,915.57,VALID,0,VALID,100,VALID,-0.0169808,VALID,18.149,VALID,132,VALID,1.0815,
2008-06-09, 01:50:00,VALID,915.569,VALID,0,VALID,100,VALID,-0.0339617,VALID,18.1488,VALID,129,VALID,1.15156,
2008-06-09, 01:51:00,VALID,915.553,VALID,0,VALID,100,VALID,-0.0339617,VALID,18.165,VALID,131,VALID,1.13141,
2008-06-09, 01:52:00,VALID,915.549,VALID,0,VALID,100,VALID,-0.0509425,VALID,18.1652,VALID,133,VALID,1.06364,
2008-06-09, 01:53:00,VALID,915.544,VALID,0,VALID,100,VALID,0.0169808,VALID,18.1807,VALID,135,VALID,1.25273,
2008-06-09, 01:54:00,VALID,915.53,VALID,0,VALID,100,VALID,0.0849042,VALID,18.1868,VALID,127,VALID,1.0385,
2008-06-09, 01:55:00,VALID,915.52,VALID,0,VALID,100,VALID,0.0339617,VALID,18.1969,VALID,137,VALID,1.08575,
2008-06-09, 01:56:00,VALID,915.493,VALID,0,VALID,100,VALID,0.0849042,VALID,18.1993,VALID,136,VALID,1.12028,
2008-06-09, 01:57:00,VALID,915.469,VALID,0,VALID,100,VALID,0.0509425,VALID,18.2027,VALID,136,VALID,1.11172,
2008-06-09, 01:58:00,VALID,915.448,VALID,0,VALID,100,VALID,0.0849042,VALID,18.2027,VALID,127,VALID,1.01302,
2008-06-09, 01:59:00,VALID,915.423,VALID,0,VALID,100,VALID,0.0509425,VALID,18.2192,VALID,128,VALID,0.91582,
2008-06-09, 02:00:00,VALID,915.414,VALID,0,VALID,100,VALID,0.0679233,VALID,18.2058,VALID,119,VALID,0.993832,
2008-06-09, 02:01:00,VALID,915.4,VALID,0,VALID,100,VALID,0.0849042,VALID,18.2032,VALID,118,VALID,0.703488,
2008-06-09, 02:02:00,VALID,915.39,VALID,0,VALID,100,VALID,0.101885,VALID,18.1798,VALID,114,VALID,0.624273,
2008-06-09, 02:03:00,VALID,915.359,VALID,0,VALID,100,VALID,0.0679233,VALID,18.1541,VALID,117,VALID,0.717448,
2008-06-09, 02:04:00,VALID,915.363,VALID,0,VALID,100,VALID,0.0509425,VALID,18.1411,VALID,125,VALID,0.699023,
2008-06-09, 02:05:00,VALID,915.389,VALID,0,VALID,100,VALID,0.0169808,VALID,18.1316,VALID,131,VALID,0.715843,
2008-06-09, 02:06:00,VALID,915.382,VALID,0,VALID,100,VALID,0.0169808,VALID,18.1251,VALID,146,VALID,0.705412,
2008-06-09, 02:07:00,VALID,915.393,VALID,0,VALID,100,VALID,0.0169808,VALID,18.1282,VALID,149,VALID,0.752544,
2008-06-09, 02:08:00,VALID,915.393,VALID,0,VALID,100,VALID,0.0339617,VALID,18.1319,VALID,154,VALID,0.820913,
2008-06-09, 02:09:00,VALID,915.384,VALID,0,VALID,100,VALID,-0.0339617,VALID,18.1425,VALID,145,VALID,0.629794,
2008-06-09, 02:10:00,VALID,915.387,VALID,0,VALID,100,VALID,-0.0169808,VALID,18.1522,VALID,143,VALID,0.741257,
2008-06-09, 02:11:00,VALID,915.372,VALID,0,VALID,100,VALID,0,VALID,18.1715,VALID,144,VALID,0.873666,
2008-06-09, 02:12:00,VALID,915.382,VALID,0,VALID,100,VALID,-0.0509425,VALID,18.1974,VALID,145,VALID,0.740189,
2008-06-09, 02:13:00,VALID,915.388,VALID,0,VALID,100,VALID,-0.0679233,VALID,18.2169,VALID,145,VALID,0.735709,
2008-06-09, 02:14:00,VALID,915.383,VALID,0,VALID,99.999,VALID,-0.0509425,VALID,18.2331,VALID,139,VALID,0.843023,
2008-06-09, 02:15:00,VALID,915.396,VALID,0,VALID,99.957,VALID,-0.0339617,VALID,18.2461,VALID,127,VALID,0.797461,
2008-06-09, 02:16:00,VALID,915.404,VALID,0,VALID,99.8273,VALID,-0.0509425,VALID,18.2493,VALID,128,VALID,0.711825,
2008-06-09, 02:17:00,VALID,915.42,VALID,0,VALID,99.6862,VALID,-0.0339617,VALID,18.2491,VALID,136,VALID,0.8038,
2008-06-09, 02:18:00,VALID,915.415,VALID,0,VALID,99.6137,VALID,-0.0169808,VALID,18.2493,VALID,138,VALID,0.90407,
2008-06-09, 02:19:00,VALID,915.416,VALID,0,VALID,99.587,VALID,-0.0339617,VALID,18.2528,VALID,145,VALID,0.892531,
2008-06-09, 02:20:00,VALID,915.424,VALID,0,VALID,99.512,VALID,0,VALID,18.2588,VALID,152,VALID,0.948686,
2008-06-09, 02:21:00,VALID,915.407,VALID,0,VALID,99.4662,VALID,0,VALID,18.2623,VALID,152,VALID,1.08809,
2008-06-09, 02:22:00,VALID,915.399,VALID,0,VALID,99.4166,VALID,-0.0339617,VALID,18.2755,VALID,149,VALID,1.00945,
2008-06-09, 02:23:00,VALID,915.383,VALID,0,VALID,99.3466,VALID,-0.0339617,VALID,18.2752,VALID,144,VALID,0.837573,
2008-06-09, 02:24:00,VALID,915.377,VALID,0,VALID,99.3174,VALID,-0.0169808,VALID,18.2593,VALID,143,VALID,0.940476,
2008-06-09, 02:25:00,VALID,915.395,VALID,0,VALID,99.3072,VALID,-0.0509425,VALID,18.2593,VALID,143,VALID,0.763672,
2008-06-09, 02:26:00,VALID,915.395,VALID,0,VALID,99.2958,VALID,-0.0169808,VALID,18.2625,VALID,144,VALID,0.905107,
2008-06-09, 02:27:00,VALID,915.378,VALID,0,VALID,99.3835,VALID,0,VALID,18.2657,VALID,143,VALID,1.07322,
2008-06-09, 02:28:00,VALID,915.38,VALID,0,VALID,99.4585,VALID,0,VALID,18.2785,VALID,138,VALID,1.24383,
2008-06-09, 02:29:00,VALID,915.364,VALID,0,VALID,99.3619,VALID,0.0169808,VALID,18.2912,VALID,138,VALID,1.04278,
2008-06-09, 02:30:00,VALID,915.366,VALID,0,VALID,99.3238,VALID,0,VALID,18.2945,VALID,136,VALID,1.05352,
2008-06-09, 02:31:00,VALID,915.362,VALID,0,VALID,99.2767,VALID,-0.0339617,VALID,18.2975,VALID,135,VALID,1.09375,
2008-06-09, 02:32:00,VALID,915.364,VALID,0,VALID,99.1902,VALID,0,VALID,18.2975,VALID,136,VALID,0.917668,
2008-06-09, 02:33:00,VALID,915.373,VALID,0,VALID,99.1318,VALID,0.0169808,VALID,18.2912,VALID,138,VALID,1.06582,
2008-06-09, 02:34:00,VALID,915.383,VALID,0,VALID,99.1534,VALID,-0.0169808,VALID,18.2979,VALID,142,VALID,1.03391,
2008-06-09, 02:35:00,VALID,915.398,VALID,0,VALID,99.1165,VALID,0,VALID,18.3109,VALID,146,VALID,1.00568,
2008-06-09, 02:36:00,VALID,915.408,VALID,0,VALID,99.0987,VALID,-0.0169808,VALID,18.3077,VALID,143,VALID,0.528274,
2008-06-09, 02:37:00,VALID,915.407,VALID,0,VALID,99.0415,VALID,-0.0169808,VALID,18.3304,VALID,149,VALID,0.705031,
2008-06-09, 02:38:00,VALID,915.41,VALID,0,VALID,98.9575,VALID,-0.0169808,VALID,18.3274,VALID,145,VALID,1.01453,
2008-06-09, 02:39:00,VALID,915.415,VALID,0,VALID,98.8291,VALID,-0.0679233,VALID,18.3283,VALID,140,VALID,1.11101,
2008-06-09, 02:40:00,VALID,915.413,VALID,0,VALID,98.7414,VALID,-0.101885,VALID,18.3246,VALID,129,VALID,1.07102,
2008-06-09, 02:41:00,VALID,915.398,VALID,0,VALID,98.6295,VALID,-0.0849042,VALID,18.3183,VALID,121,VALID,1.04107,
2008-06-09, 02:42:00,VALID,915.396,VALID,0,VALID,98.5354,VALID,-0.118866,VALID,18.3218,VALID,120,VALID,1.04918,
2008-06-09, 02:43:00,VALID,915.387,VALID,0,VALID,98.4387,VALID,-0.0849042,VALID,18.3246,VALID,121,VALID,1.12159,
2008-06-09, 02:44:00,VALID,915.395,VALID,0,VALID,98.3751,VALID,-0.101885,VALID,18.3116,VALID,124,VALID,1.20427,
2008-06-09, 02:45:00,VALID,915.393,VALID,0,VALID,98.3332,VALID,-0.101885,VALID,18.325,VALID,128,VALID,1.11759,
2008-06-09, 02:46:00,VALID,915.399,VALID,0,VALID,98.2709,VALID,-0.101885,VALID,18.3348,VALID,129,VALID,1.16719,
2008-06-09, 02:47:00,VALID,915.404,VALID,0,VALID,98.1463,VALID,-0.101885,VALID,18.3413,VALID,130,VALID,1.37536,
2008-06-09, 02:48:00,VALID,915.425,VALID,0,VALID,98.0204,VALID,-0.0849042,VALID,18.3635,VALID,134,VALID,1.39898,
2008-06-09, 02:49:00,VALID,915.413,VALID,0,VALID,97.8652,VALID,-0.101885,VALID,18.3867,VALID,134,VALID,1.37736,
2008-06-09, 02:50:00,VALID,915.421,VALID,0,VALID,97.7762,VALID,-0.0509425,VALID,18.386,VALID,140,VALID,0.916406,
2008-06-09, 02:51:00,VALID,915.422,VALID,0,VALID,97.7037,VALID,-0.0849042,VALID,18.3929,VALID,137,VALID,0,
2008-06-09, 02:52:00,VALID,915.428,VALID,0,VALID,97.7521,VALID,-0.0679233,VALID,18.3932,VALID,146,VALID,0,
2008-06-09, 02:53:00,VALID,915.421,VALID,0,VALID,97.8563,VALID,-0.0679233,VALID,18.3962,VALID,152,VALID,0.081936,
2008-06-09, 02:54:00,VALID,915.426,VALID,0,VALID,97.8856,VALID,-0.0679233,VALID,18.3927,VALID,156,VALID,0,
2008-06-09, 02:55:00,VALID,915.423,VALID,0,VALID,98.0013,VALID,-0.0849042,VALID,18.3962,VALID,152,VALID,0.00106534,
2008-06-09, 02:56:00,VALID,915.416,VALID,0,VALID,98.1691,VALID,-0.118866,VALID,18.3897,VALID,152,VALID,0,
2008-06-09, 02:57:00,VALID,915.408,VALID,0,VALID,98.3535,VALID,-0.118866,VALID,18.3568,VALID,152,VALID,0,
2008-06-09, 02:58:00,VALID,915.419,VALID,0,VALID,98.5074,VALID,-0.101885,VALID,18.3475,VALID,152,VALID,0,
2008-06-09, 02:59:00,VALID,915.411,VALID,0,VALID,98.6002,VALID,-0.101885,VALID,18.3318,VALID,148,VALID,0,
2008-06-09, 03:00:00,VALID,915.4,VALID,0,VALID,98.6943,VALID,-0.118866,VALID,18.3088,VALID,145,VALID,0,
2008-06-09, 03:01:00,VALID,915.39,VALID,0,VALID,98.796,VALID,-0.101885,VALID,18.2894,VALID,145,VALID,0,
2008-06-09, 03:02:00,VALID,915.403,VALID,0,VALID,98.8507,VALID,-0.101885,VALID,18.3058,VALID,145,VALID,0,
2008-06-09, 03:03:00,VALID,915.406,VALID,0,VALID,98.8685,VALID,-0.101885,VALID,18.3021,VALID,146,VALID,0,
2008-06-09, 03:04:00,VALID,915.395,VALID,0,VALID,98.8304,VALID,-0.101885,VALID,18.3023,VALID,147,VALID,0,
2008-06-09, 03:05:00,VALID,915.403,VALID,0,VALID,98.8889,VALID,-0.118866,VALID,18.2887,VALID,153,VALID,0,
2008-06-09, 03:06:00,VALID,915.416,VALID,0,VALID,98.9308,VALID,-0.101885,VALID,18.2896,VALID,154,VALID,0,
2008-06-09, 03:07:00,VALID,915.402,VALID,0,VALID,98.9753,VALID,-0.101885,VALID,18.2799,VALID,153,VALID,0,
2008-06-09, 03:08:00,VALID,915.412,VALID,0,VALID,98.9944,VALID,-0.0849042,VALID,18.2822,VALID,153,VALID,0,
2008-06-09, 03:09:00,VALID,915.409,VALID,0,VALID,98.9652,VALID,0,VALID,18.3012,VALID,152,VALID,0,
2008-06-09, 03:10:00,VALID,915.399,VALID,0,VALID,98.8469,VALID,0,VALID,18.3139,VALID,145,VALID,0,
2008-06-09, 03:11:00,VALID,915.401,VALID,0,VALID,98.6689,VALID,0,VALID,18.3299,VALID,138,VALID,0,
2008-06-09, 03:12:00,VALID,915.407,VALID,0,VALID,98.5061,VALID,0,VALID,18.3498,VALID,137,VALID,0,
2008-06-09, 03:13:00,VALID,915.392,VALID,0,VALID,98.4057,VALID,0.0339617,VALID,18.3591,VALID,140,VALID,0,
2008-06-09, 03:14:00,VALID,915.386,VALID,0,VALID,98.2989,VALID,0,VALID,18.3593,VALID,140,VALID,0,
2008-06-09, 03:15:00,VALID,915.384,VALID,0,VALID,98.2315,VALID,0,VALID,18.3623,VALID,140,VALID,0,
2008-06-09, 03:16:00,VALID,915.372,VALID,0,VALID,98.1399,VALID,0,VALID,18.3429,VALID,140,VALID,0,
2008-06-09, 03:17:00,VALID,915.351,VALID,0,VALID,98.0255,VALID,0,VALID,18.3271,VALID,140,VALID,0,
2008-06-09, 03:18:00,VALID,915.361,VALID,0,VALID,98.0331,VALID,0.0169808,VALID,18.2623,VALID,140,VALID,0,
2008-06-09, 03:19:00,VALID,915.362,VALID,0,VALID,98.075,VALID,-0.0169808,VALID,18.174,VALID,140,VALID,0,
2008-06-09, 03:20:00,VALID,915.374,VALID,0,VALID,98.2772,VALID,0,VALID,18.1029,VALID,140,VALID,0,
2008-06-09, 03:21:00,VALID,915.362,VALID,0,VALID,98.4794,VALID,0.0169808,VALID,18.064,VALID,140,VALID,0,
2008-06-09, 03:22:00,VALID,915.356,VALID,0,VALID,98.7681,VALID,0,VALID,18.0383,VALID,140,VALID,0,
2008-06-09, 03:23:00,VALID,915.358,VALID,0,VALID,98.997,VALID,0,VALID,18.0281,VALID,140,VALID,0,
2008-06-09, 03:24:00,VALID,915.355,VALID,0,VALID,99.0936,VALID,0.0339617,VALID,18.0411,VALID,139,VALID,0,
2008-06-09, 03:25:00,VALID,915.364,VALID,0,VALID,99.1941,VALID,0,VALID,18.0478,VALID,135,VALID,0,
2008-06-09, 03:26:00,VALID,915.372,VALID,0,VALID,99.1114,VALID,0.0169808,VALID,18.0445,VALID,132,VALID,0,
2008-06-09, 03:27:00,VALID,915.388,VALID,0,VALID,99.0707,VALID,-0.0169808,VALID,18.032,VALID,132,VALID,0,
2008-06-09, 03:28:00,VALID,915.397,VALID,0,VALID,99.2093,VALID,-0.0169808,VALID,18.0026,VALID,132,VALID,0,
2008-06-09, 03:29:00,VALID,915.389,VALID,0,VALID,99.3416,VALID,0,VALID,17.9859,VALID,116,VALID,0,
2008-06-09, 03:30:00,VALID,915.387,VALID,0,VALID,99.3988,VALID,0,VALID,17.9764,VALID,112,VALID,0,
2008-06-09, 03:31:00,VALID,915.392,VALID,0,VALID,99.4878,VALID,0,VALID,17.9602,VALID,112,VALID,0,
2008-06-09, 03:32:00,VALID,915.373,VALID,0,VALID,99.545,VALID,0,VALID,17.9736,VALID,112,VALID,0,
2008-06-09, 03:33:00,VALID,915.373,VALID,0,VALID,99.5476,VALID,-0.0169808,VALID,17.957,VALID,112,VALID,0,
2008-06-09, 03:34:00,VALID,915.377,VALID,0,VALID,99.6073,VALID,-0.0169808,VALID,17.9535,VALID,112,VALID,0,
2008-06-09, 03:35:00,VALID,915.372,VALID,0,VALID,99.6963,VALID,0,VALID,17.9736,VALID,112,VALID,0,
2008-06-09, 03:36:00,VALID,915.374,VALID,0,VALID,99.6086,VALID,-0.0169808,VALID,17.9475,VALID,112,VALID,0,
2008-06-09, 03:37:00,VALID,915.362,VALID,0,VALID,99.5196,VALID,0,VALID,17.9053,VALID,112,VALID,0,
2008-06-09, 03:38:00,VALID,915.364,VALID,0,VALID,99.7141,VALID,-0.0169808,VALID,17.8889,VALID,112,VALID,0,
2008-06-09, 03:39:00,VALID,915.352,VALID,0,VALID,99.8311,VALID,-0.0339617,VALID,17.8895,VALID,112,VALID,0,